Regional Weather Roundup
Issued by NWS Portland, ME

Home | Current Version | Previous Version | Text Only | Print | Product List | Glossary On
Versions: 1 2 3 4 5 6 7 8 9 10 11 12 13 14 15 16 17 18 19 20 21 22 23 24 25 26 27 28 29 30 31 32 33 34 35 36 37 38 39 40 41 42 43 44 45 46 47 48 49 50
000
ASUS41 KGYX 141605
RWRGYX
WEATHER ROUNDUP FOR MAINE AND NEW HAMPSHIRE
NATIONAL WEATHER SERVICE GRAY ME
1100 AM EST THU DEC 14 2017

MEZ002-005-006-010-012-015-018-020-021-024-026-027-029-141700-
MAINE

CITY           SKY/WX    TMP DP  RH WIND       PRES   REMARKS
PORTLAND       MOSUNNY   21   6  52 W14       29.57F WCI   8
SANFORD        CLOUDY    24   9  52 W8        29.58S
BAR HARBOR     CLOUDY    20   5  52 W10G17    29.54F WCI   9
WISCASSET      MOSUNNY   19   9  65 VRB5      29.58F
ROCKLAND       CLOUDY    20   6  55 W14       29.54F WCI   7
FRYEBURG       MOSUNNY   23  -1  35 W8        29.54F
LEWISTONAUBURN CLOUDY    19   6  57 NW6       29.56F
AUGUSTA        PTSUNNY   18   0  45 W10G20    29.55F WCI   6
WATERVILLE     CLOUDY    17   0  47 W13G20    29.50F WCI   4
BANGOR         CLOUDY    16   5  62 W9        29.54F
GREENVILLE       N/A      5  -2  72 NW8       29.40S
MILLINOCKET    MOSUNNY   10   0  63 W10G18    29.50S WCI  -4
HOULTON        SUNNY     10   1  67 W13       29.42F WCI  -5
PRESQUE ISLE   CLOUDY     6  -3  66 SW12G21   29.43R HAZE    WCI  -9
FRENCHVILLE    CLOUDY     0  -7  72 SW17G24   29.32R WCI -21
CARIBOU        CLOUDY     5  -5  63 W15G24    29.39S WCI -13
$$

NHZ002-005-008-009-011-012-014-141700-
NEW HAMPSHIRE

CITY           SKY/WX    TMP DP  RH WIND       PRES   REMARKS
PORTSMOUTH     MOSUNNY   23   7  50 NW10      29.59R WCI  13
ROCHESTER      MOSUNNY   21   7  54 NW12      29.58R WCI   9
NASHUA         MOSUNNY   25  10  53 W9        29.63R
MANCHESTER     MOSUNNY   24   7  48 NW9       29.60R
CONCORD        MOSUNNY   23   6  48 NW14      29.60S WCI  11
LACONIA        MOSUNNY   21   2  43 W14G24    29.58S WCI   8
PLYMOUTH       FAIR      18   3  51 NW6       29.59S
BERLIN         SUNNY     12   0  58 N8        29.53S
WHITEFIELD     SUNNY     13   3  64 NW5       29.56S
JAFFREY        SUNNY     21   9  59 W10G18    29.58R WCI  10
KEENE          CLOUDY    24   9  52 VRB5      29.63R
LEBANON        MOSUNNY   15   4  61 CALM      29.61R
MT WASHINGTON  BLWGSNOW -11 -11 100 W59G69      N/A  VSB 1/8 WCI -49
$$

VTZ005-007-008-141700-
VERMONT

CITY           SKY/WX    TMP DP  RH WIND       PRES   REMARKS
ST JOHNSBURY     N/A     12   3  67 MISG      29.60S
MONTPELIER     SUNNY     10   2  69 NE8       29.61R
BURLINGTON     MOSUNNY   11  -2  56 NE6       29.71R
$$

MAZ007-012-024-CTZ003-RIZ002-NYZ038-NYZ072-141700-
SOUTHERN NEW ENGLAND AND NY

CITY           SKY/WX    TMP DP  RH WIND       PRES   REMARKS
BOSTON         CLOUDY    26   8  46 W13       29.65R WCI  15
WORCESTER      LGT SNOW  22   8  55 NW8       29.58R
NANTUCKET      FLURRIES  29  27  92 N13       29.60F WCI  19
PROVIDENCE     CLOUDY    24  18  77 W7        29.66S
HARTFORD       MOSUNNY   25  14  63 W7        29.67R
ALBANY         MOSUNNY   22   7  52 W16G24    29.74R WCI   8
NEW YORK CITY  PTSUNNY   29  21  72 N15       29.72R WCI  18
$$

ANZ081-ANZ082-ANZ150-NHZ014-MEZ023>029-141700-
COASTAL MARINE OBSERVATIONS

STATION/POSITION TIME  TEMP    WIND        PRES    WAVE
                       AIR SEA DIR/SP/G            HT/PER
                 (UTC) (F)     (DEG/KT/KT) (MB)    (FT/S)
MOUNT DESERT ROC 1600   27     260/ 18/ 22  999.5F
MATINICUS ROCK   1500   27     270/ 19/ 21  999.8F
ISLE OF SHOALS   1500   23     300/ 16/ 19 1002.0R
JEFFREYS LEDGE   1536      48                N/A     3/ 4
GEORGES BANK BUO 1450   41 51              1001.6   12/10
$$

.............KEY..............
   WCI - WIND CHILL
   TC  - TEMPERATURE IN CELSIUS
   VSB - VISIBILITY IN MILES
   HX  - HEAT INDEX
   FAIR- INDICATES FEW OR NO CLOUDS BELOW 12,000 FT, WITH NO
         SIGNIFICANT WEATHER AND/OR OBSTRUCTIONS TO VISIBILITY.






USA.gov is the U.S. government's official web portal to all federal, state and local government web resources and services.